IRIDIUM 106 1 41917U 17003A 26206.60771187 .00000004 00000+0 -54633-5 0 9996 2 41917 86.3927 72.4880 0002312 92.3891 267.7570 14.34217429498718 IRIDIUM 103 1 41918U 17003B 26206.59502536 .00000049 00000+0 10539-4 0 9999 2 41918 86.3931 72.3934 0001988 89.2881 270.8543 14.34217805498730 IRIDIUM 109 1 41919U 17003C 26206.60136853 .00000087 00000+0 24052-4 0 9994 2 41919 86.3932 72.4508 0002129 86.1728 273.9711 14.34218010498701 IRIDIUM 102 1 41920U 17003D 26206.63942363 .00000189 00000+0 60589-4 0 9998 2 41920 86.3930 72.3576 0002256 86.0510 274.0944 14.34217528498796 IRIDIUM 105 1 41921U 17003E 26206.03987120 .00000244 00000+0 79995-4 0 9996 2 41921 86.3941 41.0359 0002000 84.1958 275.9466 14.34217075500568 IRIDIUM 104 1 41922U 17003F 26206.09396030 .00000040 00000+0 73142-5 0 9990 2 41922 86.3933 72.6290 0001882 83.7979 276.3431 14.34217796498708 IRIDIUM 114 1 41923U 17003G 26206.37937802 .00000065 00000+0 16069-4 0 9991 2 41923 86.3937 72.4923 0002195 87.3386 272.8062 14.34215549498721 IRIDIUM 108 1 41924U 17003H 26206.05882481 .00000008 00000+0 -42203-5 0 9997 2 41924 86.3931 40.9157 0002093 86.2854 273.8581 14.34217538500530 IRIDIUM 112 1 41925U 17003J 26206.36669258 .00000051 00000+0 10987-4 0 9997 2 41925 86.3926 72.3384 0002100 85.1342 275.0094 14.34217781498747 IRIDIUM 111 1 41926U 17003K 26206.63308161 .00000037 00000+0 60353-5 0 9998 2 41926 86.3929 72.2983 0002170 87.2002 272.9443 14.34217666498766 IRIDIUM 113 1 42803U 17039A 26206.54327751 .00000014 00000+0 -18998-5 0 9992 2 42803 86.3992 306.1497 0002149 93.8148 266.3294 14.34217655476686 IRIDIUM 123 1 42804U 17039B 26206.30568155 .00000107 00000+0 30967-4 0 9993 2 42804 86.4001 337.7047 0002201 96.6430 263.5017 14.34218466475417 IRIDIUM 120 1 42805U 17039C 26206.32762971 .00000007 00000+0 -46282-5 0 9996 2 42805 86.3979 306.0172 0002345 96.6932 263.4531 14.34217631476644 IRIDIUM 115 1 42806U 17039D 26206.31988087 .00000318 00000+0 88577-4 0 9990 2 42806 86.4517 306.1545 0002382 98.8000 261.3470 14.43282383479761 IRIDIUM 118 1 42807U 17039E 26206.61646913 -.00000008 00000+0 -99614-5 0 9996 2 42807 86.4003 337.5734 0002059 92.4649 267.6783 14.34217493475458 IRIDIUM 117 1 42808U 17039F 26206.35642251 .00000016 00000+0 -12394-5 0 9997 2 42808 86.4000 337.6392 0002077 95.0167 265.1266 14.34217576475441 IRIDIUM 126 1 42809U 17039G 26206.31202441 .00000083 00000+0 22639-4 0 9992 2 42809 86.4002 337.7092 0002100 94.7492 265.3943 14.34218165475412 IRIDIUM 124 1 42810U 17039H 26206.60033539 .00000190 00000+0 50441-4 0 9997 2 42810 86.4471 274.2976 0002313 95.7951 264.3513 14.43277243480653 IRIDIUM 128 1 42811U 17039J 26206.16322627 .00000252 00000+0 82744-4 0 9998 2 42811 86.3973 9.2688 0002309 93.4384 266.7076 14.34218461475422 IRIDIUM 121 1 42812U 17039K 26206.61012647 .00000019 00000+0 -28663-6 0 9991 2 42812 86.4003 337.6131 0002163 93.1912 266.9531 14.34217725475331 IRIDIUM 133 1 42955U 17061A 26206.19493883 .00000089 00000+0 24778-4 0 9999 2 42955 86.3977 9.3745 0002223 91.7202 268.4248 14.34218057460228 IRIDIUM 100 1 42956U 17061B 26206.39790115 .00000026 00000+0 23452-5 0 9990 2 42956 86.3976 9.2073 0002180 91.0263 269.1183 14.34218171460259 IRIDIUM 122 1 42957U 17061C 26206.43595664 .00000237 00000+0 77524-4 0 9990 2 42957 86.3975 9.1916 0002136 92.3632 267.7808 14.34219091460260 IRIDIUM 129 1 42958U 17061D 26206.46133161 .00000239 00000+0 78218-4 0 9997 2 42958 86.3977 9.2484 0002034 87.6665 272.4764 14.34218517460282 IRIDIUM 119 1 42959U 17061E 26206.42961568 .00000217 00000+0 70387-4 0 9999 2 42959 86.3975 9.2577 0002090 91.9562 268.1874 14.34219063460292 IRIDIUM 107 1 42960U 17061F 26206.44864244 .00000191 00000+0 61028-4 0 9999 2 42960 86.3978 9.2709 0002234 99.2486 260.8963 14.34217873460307 IRIDIUM 132 1 42961U 17061G 26206.45498561 .00000205 00000+0 66315-4 0 9996 2 42961 86.3976 9.2476 0002177 92.0038 268.1407 14.34217568460302 IRIDIUM 136 1 42962U 17061H 26206.41692924 .00000002 00000+0 -61897-5 0 9999 2 42962 86.3977 9.2704 0002231 90.8329 269.3122 14.34217802460317 IRIDIUM 139 1 42963U 17061J 26206.42326937 .00000181 00000+0 57645-4 0 9991 2 42963 86.3979 9.3304 0002265 91.4641 268.6814 14.34219882460329 IRIDIUM 125 1 42964U 17061K 26206.41058579 .00000289 00000+0 96021-4 0 9995 2 42964 86.3979 9.3975 0001836 102.8991 257.2410 14.34217432460338 IRIDIUM 135 1 43070U 17083A 26206.52424891 .00000093 00000+0 26138-4 0 9999 2 43070 86.3987 305.9918 0002248 95.5234 264.6219 14.34218396449644 IRIDIUM 138 1 43071U 17083B 26206.54961945 .00000074 00000+0 19440-4 0 9995 2 43071 86.3999 305.6825 0002078 95.4379 264.7054 14.34217888449634 IRIDIUM 116 1 43072U 17083C 26206.30860244 .00000123 00000+0 37026-4 0 9995 2 43072 86.3985 306.0675 0002547 95.6660 264.4827 14.34217771449630 IRIDIUM 130 1 43073U 17083D 26206.34665739 -.00000048 00000+0 -24278-4 0 9995 2 43073 86.3991 306.3305 0002314 100.0453 260.1004 14.34217427449586 IRIDIUM 151 1 43074U 17083E 26206.32128690 .00000061 00000+0 14647-4 0 9996 2 43074 86.3986 306.1208 0002289 95.3866 264.7591 14.34217445449600 IRIDIUM 134 1 43075U 17083F 26206.35934185 .00000028 00000+0 27722-5 0 9996 2 43075 86.3988 306.1134 0002276 96.8079 263.3376 14.34217918449576 IRIDIUM 137 1 43076U 17083G 26206.51156549 .00000012 00000+0 -27239-5 0 9992 2 43076 86.3989 306.1436 0002497 88.4786 271.6696 14.34217604449669 IRIDIUM 141 1 43077U 17083H 26206.29591626 .00000212 00000+0 68497-4 0 9998 2 43077 86.3985 306.0619 0002177 95.4553 264.6891 14.34217515449630 IRIDIUM 153 1 43078U 17083J 26206.59693752 .00000025 00000+0 17098-5 0 9999 2 43078 86.3950 274.4129 0002165 96.6389 263.5054 14.34217681450785 IRIDIUM 131 1 43079U 17083K 26206.56230520 .00000012 00000+0 -29082-5 0 9990 2 43079 86.3991 306.1392 0002196 93.5117 266.6330 14.34217744449605 IRIDIUM 144 1 43249U 18030A 26206.46374360 .00000181 00000+0 57395-4 0 9995 2 43249 86.3947 274.3968 0002408 95.1191 265.0279 14.34217450435622 IRIDIUM 149 1 43250U 18030B 26206.26078014 .00000027 00000+0 24638-5 0 9996 2 43250 86.3945 274.4482 0002259 94.7464 265.3990 14.34217754435615 IRIDIUM 157 1 43251U 18030C 26206.27980808 .00000011 00000+0 -29870-5 0 9998 2 43251 86.3947 274.4945 0002285 94.7870 265.3586 14.34217726435599 IRIDIUM 140 1 43252U 18030D 26206.43837269 .00000015 00000+0 -16898-5 0 9999 2 43252 86.3947 274.4405 0002177 96.0888 264.0556 14.34217823435675 IRIDIUM 145 1 43253U 18030E 26206.42568830 .00000052 00000+0 11425-4 0 9994 2 43253 86.3948 274.4181 0002632 96.6897 263.4598 14.34217883435608 IRIDIUM 146 1 43254U 18030F 26206.47642890 .00000071 00000+0 18316-4 0 9996 2 43254 86.3948 274.4090 0002402 94.6125 265.5345 14.34218031435626 IRIDIUM 148 1 43255U 18030G 26206.58425276 -.00000020 00000+0 -14054-4 0 9997 2 43255 86.3949 274.4075 0002193 92.4939 267.6508 14.34217551435672 IRIDIUM 142 1 43256U 18030H 26206.62230623 .00000199 00000+0 64149-4 0 9998 2 43256 86.3946 274.2792 0002470 94.3176 265.8302 14.34219396435644 IRIDIUM 150 1 43257U 18030J 26206.59059522 .00000116 00000+0 34398-4 0 9994 2 43257 86.3948 274.4099 0002375 96.0278 264.1189 14.34218242435661 IRIDIUM 143 1 43258U 18030K 26206.43203051 .00000013 00000+0 -23002-5 0 9994 2 43258 86.3952 274.5703 0002281 95.5525 264.5932 14.34217678435577 IRIDIUM 161 1 43478U 18047C 26206.16230420 .00000281 00000+0 77612-4 0 9997 2 43478 86.4451 72.5873 0002096 81.4679 278.6759 14.43279704430619 IRIDIUM 152 1 43479U 18047D 26206.12567392 .00000004 00000+0 -56551-5 0 9999 2 43479 86.3923 72.4636 0001953 85.3224 274.8195 14.34217519427927 IRIDIUM 147 1 43480U 18047E 26206.13201704 .00000022 00000+0 71000-6 0 9990 2 43480 86.3925 72.4669 0002207 86.7916 273.3532 14.34217575427924 IRIDIUM 110 1 43481U 18047F 26206.13835859 .00000069 00000+0 17423-4 0 9993 2 43481 86.3930 72.5575 0001960 79.8362 280.3055 14.34217148427914 IRIDIUM 162 1 43482U 18047G 26206.57197515 .00000266 00000+0 72973-4 0 9992 2 43482 86.4449 72.3064 0002186 87.1109 273.0342 14.43282480430669 IRIDIUM 160 1 43569U 18061A 26206.08419528 .00000240 00000+0 78574-4 0 9996 2 43569 86.3938 40.9438 0002206 88.0506 272.0942 14.34217107418808 IRIDIUM 166 1 43570U 18061B 26206.03979923 -.00000037 00000+0 -20103-4 0 9994 2 43570 86.3933 40.9120 0002167 88.9870 271.1574 14.34216771418821 IRIDIUM 158 1 43571U 18061C 26206.49646390 .00000201 00000+0 64715-4 0 9992 2 43571 86.3935 40.7309 0002175 90.2453 269.8992 14.34217845418857 IRIDIUM 165 1 43572U 18061D 26206.52183528 .00000267 00000+0 88306-4 0 9990 2 43572 86.3935 40.7680 0002319 93.0336 267.1126 14.34217563418881 IRIDIUM 155 1 43573U 18061E 26206.27447259 -.00000001 00000+0 -73860-5 0 9995 2 43573 86.3932 40.7381 0002075 91.2197 268.9236 14.34217514418811 IRIDIUM 154 1 43574U 18061F 26206.53451988 .00000162 00000+0 50827-4 0 9992 2 43574 86.3937 40.7648 0002347 88.6548 271.4917 14.34217717418905 IRIDIUM 163 1 43575U 18061G 26206.09688095 .00000138 00000+0 42190-4 0 9992 2 43575 86.3935 40.8618 0002117 88.4465 271.6973 14.34217216418811 IRIDIUM 156 1 43576U 18061H 26206.07150938 .00000114 00000+0 33688-4 0 9997 2 43576 86.3934 40.8800 0002178 92.8690 267.2755 14.34217953418806 IRIDIUM 164 1 43577U 18061J 26206.54086273 -.00000017 00000+0 -12986-4 0 9992 2 43577 86.3934 40.7244 0002215 87.6468 272.4981 14.34217242418917 IRIDIUM 159 1 43578U 18061K 26206.09053779 .00000048 00000+0 99747-5 0 9991 2 43578 86.3935 40.8490 0002101 87.4085 272.7352 14.34217699418810 IRIDIUM 180 1 43922U 19002A 26206.29933913 .00000263 00000+0 86692-4 0 9992 2 43922 86.4006 337.6680 0002242 93.4429 266.7023 14.34218155394455 IRIDIUM 176 1 43923U 19002B 26206.35694977 .00000814 00000+0 12512-3 0 9995 2 43923 86.6119 337.5814 0002350 92.1436 268.0050 14.72254268404864 IRIDIUM 168 1 43924U 19002C 26206.36276503 .00000250 00000+0 82192-4 0 9994 2 43924 86.4003 337.7193 0002135 91.3431 268.8010 14.34218488394442 IRIDIUM 173 1 43925U 19002D 26206.35008036 -.00000024 00000+0 -15790-4 0 9999 2 43925 86.3999 337.6123 0002054 93.4138 266.7293 14.34217346394425 IRIDIUM 169 1 43926U 19002E 26206.43834303 .00000308 00000+0 94332-4 0 9995 2 43926 86.4233 9.1972 0002181 104.2434 255.9006 14.38603154395728 IRIDIUM 172 1 43927U 19002F 26206.34373769 -.00000019 00000+0 -13988-4 0 9999 2 43927 86.3999 337.6230 0002080 92.4590 267.6844 14.34217413394434 IRIDIUM 175 1 43928U 19002G 26206.19082923 .00000280 00000+0 76630-4 0 9993 2 43928 86.4501 274.6360 0005607 96.0690 264.1150 14.43631327404469 IRIDIUM 171 1 43929U 19002H 26206.60378421 .00000096 00000+0 27141-4 0 9999 2 43929 86.4010 337.8244 0002290 95.6522 264.4935 14.34217988394467 IRIDIUM 170 1 43930U 19002J 26206.36310950 .00000806 00000+0 12383-3 0 9997 2 43930 86.6122 337.5813 0002179 90.5040 269.6426 14.72261219404876 IRIDIUM 167 1 43931U 19002K 26206.31836647 .00000234 00000+0 76478-4 0 9990 2 43931 86.4000 337.6560 0002451 98.0683 262.0791 14.34218888394422 IRIDIUM 181 1 56726U 23068S 26206.09896600 .00000267 00000+0 73216-4 0 9996 2 56726 86.4474 40.9344 0002312 83.8300 276.3164 14.43309921167903 IRIDIUM 177 1 56727U 23068T 26206.31862800 .00001096 00000+0 14136-3 0 9993 2 56727 86.1986 310.6903 0002296 98.1543 261.9939 14.80036318172001 IRIDIUM 174 1 56728U 23068U 26206.35065682 .00000976 00000+0 15087-3 0 9993 2 56728 86.6129 337.7376 0001957 96.0981 264.0459 14.72253242171633 IRIDIUM 178 1 56729U 23068V 26206.57813676 .00000941 00000+0 12099-3 0 9994 2 56729 86.6549 9.3154 0002279 92.7855 267.3627 14.80027337172049 IRIDIUM 179 1 56730U 23068W 26205.96428028 .00000498 00000+0 62395-4 0 9993 2 56730 86.6775 18.6621 0002437 93.7326 266.4174 14.80029551171950